Weather History for Hillsdale, MI

Change the Weather History Date:

Sunday, January 20, 2013

  Actual Average Record
Temperature  
Mean Temperature 30 °F -  
Max Temperature 42 °F 30 °F 53 °F (1951)
Min Temperature 17 °F 12 °F -10 °F (1985)
Degree Days  
Heating Degree Days 36    
Moisture  
Dew Point 11 °F    
Average Humidity 64    
Maximum Humidity 80    
Minimum Humidity 48    
Precipitation  
Precipitation 0.00 in - - ()
Sea Level Pressure  
Sea Level Pressure 30.02 in    
Wind  
Wind Speed 20 mph (WNW)    
Max Wind Speed 33 mph    
Max Gust Speed 48 mph    
Visibility 9 miles    
Events Snow    
Averages and records for this station are not official NWS values.
T = Trace of Precipitation, MM = Missing Value Source: NWS Daily Summary

Daily Weather History Graph

Daily Weather History Graph

Search for Another Location

Airport:

Trip Planner

Search our weather history database for the weather conditions in past years. The results will help you decide how hot, cold, wet, or windy it might be!

Date:

Astronomy

Jan. 20, 2013 Rise Set
Actual Time 8:00 AM EST 5:38 PM EST
Civil Twilight 7:30 AM EST 6:09 PM EST
Nautical Twilight 6:56 AM EST 6:43 PM EST
Astronomical Twilight 6:23 AM EST 7:16 PM EST
Moon 12:39 PM EST (1/20) 2:31 AM EST (1/20)
Length of Visible Light 10h 38m
Length of Day
9h 37m
Waxing Gibbous, 66% of the Moon is Illuminated
Jan 20
Waxing Gibbous
Jan 26
Full
Feb 3
Last Quarter
Feb 10
New
Feb 17
First Quarter

Hourly Weather History & Observations

Time (EST) Temp. Windchill Dew Point Humidity Pressure Visibility Wind Dir Wind Speed Gust Speed Precip Events Conditions
12:15 AM 42.8 °F 34.5 °F 33.8 °F 70% 29.63 in 10.0 mi West 18.4 mph 25.3 mph N/A   Mostly Cloudy
12:35 AM 42.8 °F 34.3 °F 30.2 °F 61% 29.63 in 10.0 mi West 19.6 mph 35.7 mph N/A   Scattered Clouds
12:55 AM 42.8 °F 32.1 °F 24.8 °F 49% 29.64 in 10.0 mi West 31.1 mph 44.9 mph N/A   Mostly Cloudy
1:15 AM 39.2 °F 28.7 °F 24.8 °F 56% 29.64 in 10.0 mi West 23.0 mph 44.9 mph N/A   Scattered Clouds
1:35 AM 39.2 °F 29.6 °F 24.8 °F 56% 29.65 in 10.0 mi West 19.6 mph 32.2 mph N/A   Scattered Clouds
1:55 AM 37.4 °F 25.0 °F 26.6 °F 65% 29.67 in 7.0 mi WNW 29.9 mph 36.8 mph N/A   Overcast
2:15 AM 35.6 °F 23.7 °F 17.6 °F 48% 29.70 in 10.0 mi West 24.2 mph 43.7 mph N/A   Mostly Cloudy
2:35 AM 33.8 °F 19.4 °F 15.8 °F 48% 29.73 in 10.0 mi West 33.4 mph 44.9 mph N/A   Scattered Clouds
2:55 AM 30.2 °F 15.2 °F 15.8 °F 55% 29.76 in 10.0 mi WNW 29.9 mph 46.0 mph N/A   Scattered Clouds
3:15 AM 28.4 °F 13.0 °F 12.2 °F 51% 29.79 in 10.0 mi West 28.8 mph 48.3 mph N/A   Scattered Clouds
3:35 AM 28.4 °F 12.5 °F 15.8 °F 59% 29.81 in 10.0 mi WNW 31.1 mph 42.6 mph N/A   Overcast
3:55 AM 26.6 °F 10.3 °F 17.6 °F 69% 29.83 in 2.5 mi WNW 29.9 mph 41.4 mph N/A   Overcast
4:15 AM 24.8 °F 7.3 °F 19.4 °F 80% 29.84 in 1.2 mi WNW 32.2 mph 41.4 mph N/A   Overcast
4:35 AM 24.8 °F 8.7 °F 17.6 °F 74% 29.85 in 1.5 mi NW 26.5 mph 34.5 mph N/A   Overcast
4:55 AM 23.0 °F 6.9 °F 15.8 °F 74% 29.86 in 10.0 mi WNW 24.2 mph 34.5 mph N/A   Overcast
5:15 AM 21.2 °F 5.6 °F 14.0 °F 74% 29.88 in 5.0 mi NW 20.7 mph 28.8 mph N/A   Overcast
5:35 AM 21.2 °F 5.2 °F 15.8 °F 80% 29.90 in 4.0 mi WNW 21.9 mph 33.4 mph N/A   Overcast
5:55 AM 19.4 °F 0.5 °F 14.0 °F 80% 29.92 in 2.5 mi WNW 29.9 mph 36.8 mph N/A   Overcast
6:15 AM 19.4 °F 2.5 °F 10.4 °F 68% 29.94 in 10.0 mi WNW 23.0 mph 35.7 mph N/A   Mostly Cloudy
6:35 AM 19.4 °F 2.8 °F 10.4 °F 68% 29.95 in 10.0 mi West 21.9 mph 34.5 mph N/A   Overcast
6:55 AM 19.4 °F 2.5 °F 8.6 °F 63% 29.98 in 10.0 mi West 23.0 mph 34.5 mph N/A   Overcast
7:15 AM 19.4 °F 2.5 °F 8.6 °F 63% 29.99 in 10.0 mi WNW 23.0 mph 38.0 mph N/A   Overcast
7:35 AM 17.6 °F 0.5 °F 10.4 °F 73% 30.01 in 5.0 mi WNW 21.9 mph 29.9 mph N/A   Overcast
7:55 AM 17.6 °F 0.9 °F 10.4 °F 73% 30.02 in 7.0 mi WNW 20.7 mph 26.5 mph N/A   Overcast
8:15 AM 17.6 °F 0.1 °F 6.8 °F 63% 30.04 in 10.0 mi NW 23.0 mph 31.1 mph N/A   Overcast
8:35 AM 17.6 °F 0.9 °F 6.8 °F 63% 30.06 in 10.0 mi NW 20.7 mph 33.4 mph N/A   Mostly Cloudy
8:55 AM 17.6 °F 0.5 °F 6.8 °F 63% 30.06 in 10.0 mi NW 21.9 mph 32.2 mph N/A   Overcast
9:15 AM 17.6 °F 0.1 °F 6.8 °F 63% 30.08 in 10.0 mi WNW 23.0 mph 34.5 mph N/A   Mostly Cloudy
9:35 AM 17.6 °F 0.9 °F 6.8 °F 63% 30.09 in 10.0 mi WNW 20.7 mph 29.9 mph N/A   Mostly Cloudy
9:55 AM 17.6 °F 1.3 °F 6.8 °F 63% 30.10 in 10.0 mi NW 19.6 mph 31.1 mph N/A   Overcast
10:15 AM 17.6 °F 0.5 °F 6.8 °F 63% 30.11 in 10.0 mi NW 21.9 mph 27.6 mph N/A   Overcast
10:35 AM 17.6 °F 3.2 °F 8.6 °F 68% 30.13 in 10.0 mi WNW 15.0 mph - N/A   Overcast
10:50 AM 18.9 °F 2.9 °F 8.1 °F 63% 30.13 in 10.0 mi NW 19.6 mph 25.3 mph N/A   Overcast
10:54 AM 18.7 °F 3.6 °F 7.9 °F 63% 30.13 in 10.0 mi WNW 17.3 mph 25.3 mph N/A   Overcast
11:15 AM 18.9 °F 3.3 °F 9.9 °F 68% 30.14 in 7.0 mi West 18.4 mph - N/A Snow Light Snow
11:34 AM 19.6 °F 4.3 °F 9.3 °F 64% 30.14 in 10.0 mi West 18.4 mph 24.2 mph N/A Snow Light Snow
11:55 AM 19.8 °F 4.5 °F 8.4 °F 61% 30.13 in 10.0 mi West 18.4 mph 28.8 mph N/A Snow Light Snow
12:14 PM 19.8 °F 5.0 °F 8.2 °F 61% 30.13 in 10.0 mi West 17.3 mph 27.6 mph N/A   Overcast
12:34 PM 19.8 °F 5.9 °F 10.9 °F 69% 30.12 in 5.0 mi WNW 15.0 mph 20.7 mph N/A Snow Light Snow
1:14 PM 20.1 °F 5.9 °F 8.2 °F 60% 30.10 in 10.0 mi WNW 16.1 mph 25.3 mph N/A   Overcast
1:34 PM 19.9 °F 5.7 °F 7.9 °F 60% 30.11 in 10.0 mi WNW 16.1 mph 28.8 mph N/A   Overcast
1:55 PM 20.1 °F 5.9 °F 8.2 °F 60% 30.12 in 10.0 mi WNW 16.1 mph 26.5 mph N/A   Overcast
2:14 PM 20.1 °F 7.5 °F 8.8 °F 62% 30.12 in 10.0 mi WNW 12.7 mph - N/A   Overcast
2:35 PM 19.9 °F 4.8 °F 10.6 °F 67% 30.12 in 5.0 mi WNW 18.4 mph 26.5 mph N/A Snow Light Snow
2:55 PM 20.1 °F 6.9 °F 9.1 °F 62% 30.12 in 10.0 mi West 13.8 mph 20.7 mph N/A   Overcast
3:35 PM 19.9 °F 7.3 °F 9.1 °F 63% 30.13 in 10.0 mi WNW 12.7 mph 17.3 mph N/A   Overcast
3:54 PM 19.9 °F 6.2 °F 9.3 °F 63% 30.13 in 10.0 mi WNW 15.0 mph 19.6 mph N/A Snow Light Snow
4:15 PM 19.8 °F 6.5 °F 10.0 °F 66% 30.12 in 10.0 mi West 13.8 mph - N/A Snow Light Snow
5:15 PM 18.9 °F 5.3 °F 9.5 °F 67% 30.14 in 10.0 mi WNW 13.8 mph - N/A Snow Light Snow
5:35 PM 18.9 °F 7.2 °F 10.0 °F 69% 30.13 in 10.0 mi West 10.4 mph 19.6 mph N/A Snow Light Snow
5:54 PM 18.5 °F 4.9 °F 10.0 °F 70% 30.14 in 10.0 mi WNW 13.8 mph 17.3 mph N/A Snow Light Snow
6:15 PM 18.3 °F 5.2 °F 9.1 °F 67% 30.14 in 10.0 mi West 12.7 mph 17.3 mph N/A   Overcast
6:34 PM 18.3 °F 7.3 °F 9.0 °F 67% 30.14 in 10.0 mi West 9.2 mph 18.4 mph N/A   Overcast
6:55 PM 18.3 °F 5.9 °F 9.9 °F 70% 30.15 in 10.0 mi West 11.5 mph - N/A Snow Light Snow
7:15 PM 18.3 °F 5.9 °F 10.2 °F 71% 30.15 in 10.0 mi West 11.5 mph - N/A   Overcast
7:34 PM 18.0 °F 3.6 °F 9.0 °F 68% 30.15 in 10.0 mi West 15.0 mph 19.6 mph N/A   Overcast
7:55 PM 18.0 °F 4.8 °F 8.8 °F 67% 30.14 in 7.0 mi WNW 12.7 mph - N/A Snow Light Snow
8:15 PM 17.8 °F 4.6 °F 8.6 °F 67% 30.14 in 10.0 mi West 12.7 mph 16.1 mph N/A Snow Light Snow
8:34 PM 17.8 °F 4.0 °F 6.1 °F 60% 30.14 in 10.0 mi West 13.8 mph - N/A   Overcast
8:55 PM 17.8 °F 6.6 °F 5.7 °F 59% 30.14 in 10.0 mi West 9.2 mph 13.8 mph N/A   Overcast
9:15 PM 17.4 °F 2.4 °F 5.0 °F 58% 30.14 in 10.0 mi West 16.1 mph - N/A   Overcast
9:34 PM 17.8 °F 7.5 °F 5.5 °F 59% 30.13 in 10.0 mi West 8.1 mph 17.3 mph N/A   Overcast
9:55 PM 18.0 °F 7.7 °F 6.3 °F 60% 30.13 in 10.0 mi WNW 8.1 mph - N/A   Overcast
10:14 PM 17.8 °F 7.5 °F 6.1 °F 60% 30.13 in 10.0 mi WNW 8.1 mph - N/A   Overcast
10:35 PM 17.8 °F 6.6 °F 6.1 °F 60% 30.13 in 10.0 mi WNW 9.2 mph - N/A   Overcast
10:55 PM 17.8 °F 6.6 °F 5.0 °F 57% 30.12 in 10.0 mi West 9.2 mph - N/A   Overcast
11:14 PM 17.8 °F 9.6 °F 5.5 °F 59% 30.11 in 10.0 mi West 5.8 mph - N/A   Overcast
11:35 PM 17.6 °F 8.2 °F 5.9 °F 60% 30.10 in 10.0 mi West 6.9 mph - N/A   Overcast
11:54 PM 17.8 °F 7.5 °F 6.1 °F 60% 30.10 in 10.0 mi West 8.1 mph - N/A   Overcast